Weather History for Dumas, TX

Change the Weather History Date:

Wednesday, February 6, 2013

  Actual Average (KBGD) Record (KBGD)
Temperature  
Mean Temperature 50 °F 41 °F  
Max Temperature 69 °F 54 °F 82 °F (2009)
Min Temperature 30 °F 28 °F -3 °F (1982)
Degree Days  
Heating Degree Days 16 24  
Month to date heating degree days 147  
Since 1 July heating degree days 2499  
Cooling Degree Days 0 0  
Month to date cooling degree days 0  
Year to date cooling degree days 0  
Moisture  
Dew Point 27 °F    
Average Humidity 56    
Maximum Humidity 100    
Minimum Humidity 16    
Precipitation  
Precipitation 0.00 in 0.03 in 0.51 in (2005)
Month to date precipitation 0.15  
Year to date precipitation 0.74  
Snow  
Snow 0.00 in - 3.00 in (2002)
Month to date snowfall  
Since 1 July snowfall  
Snow Depth -    
Sea Level Pressure  
Sea Level Pressure 29.84 in    
Wind  
Wind Speed 12 mph (SSW)    
Max Wind Speed 26 mph    
Max Gust Speed 34 mph    
Visibility 8 miles    
Events Fog , Snow    
T = Trace of Precipitation, MM = Missing Value Source: NWS Daily Summary

Daily Weather History Graph

Daily Weather History Graph

Search for Another Location

Airport:

Trip Planner

Search our weather history database for the weather conditions in past years. The results will help you decide how hot, cold, wet, or windy it might be!

Date:

Astronomy

Feb. 06, 2013 Rise Set
Actual Time 7:43 AM CST 6:20 PM CST
Civil Twilight 7:17 AM CST 6:47 PM CST
Nautical Twilight 6:46 AM CST 7:17 PM CST
Astronomical Twilight 6:17 AM CST 7:47 PM CST
Moon 4:25 AM CST (2/6) 2:45 PM CST (2/6)
Length of Visible Light 11h 30m
Length of Day
10h 36m
Waning Crescent, 17% of the Moon is Illuminated
Feb 6
Waning Crescent
Feb 10
New
Feb 17
First Quarter
Feb 25
Full
Mar 4
Last Quarter

Hourly Weather History & Observations

Time (CST) Temp. Windchill Dew Point Humidity Pressure Visibility Wind Dir Wind Speed Gust Speed Precip Events Conditions
12:15 AM 33.8 °F 25.8 °F 21.2 °F 60% 29.99 in 10.0 mi SSE 10.4 mph - N/A   Clear
12:35 AM 33.8 °F 25.8 °F 21.2 °F 60% 29.98 in 10.0 mi South 10.4 mph - N/A   Clear
12:55 AM 33.8 °F 24.8 °F 23.0 °F 65% 29.98 in 10.0 mi SSE 12.7 mph - N/A   Clear
1:15 AM 35.6 °F 28.0 °F 23.0 °F 60% 29.97 in 10.0 mi South 10.4 mph - N/A   Clear
1:35 AM 33.8 °F 26.4 °F 23.0 °F 65% 29.98 in 10.0 mi South 9.2 mph - N/A   Clear
1:55 AM 33.8 °F 25.8 °F 24.8 °F 70% 29.97 in 10.0 mi South 10.4 mph - N/A   Clear
2:15 AM 32.0 °F 23.0 °F 23.0 °F 69% 29.97 in 10.0 mi South 11.5 mph - N/A   Clear
2:35 AM 37.4 °F 30.3 °F 33.8 °F 87% 29.96 in 10.0 mi South 10.4 mph - N/A   Mostly Cloudy
3:15 AM 33.8 °F 26.4 °F 32.0 °F 93% 29.95 in 5.0 mi South 9.2 mph - N/A   Mostly Cloudy
3:35 AM 32.0 °F 24.8 °F 30.2 °F 93% 29.94 in 5.0 mi South 8.1 mph - N/A   Scattered Clouds
3:55 AM 30.2 °F 21.3 °F 30.2 °F 100% 29.93 in 4.0 mi South 10.4 mph - N/A   Mostly Cloudy
4:15 AM 35.6 °F 26.6 °F 35.6 °F 100% 29.93 in 4.0 mi South 13.8 mph 18.4 mph N/A   Overcast
4:35 AM 37.4 °F 27.2 °F 37.4 °F 100% 29.93 in 0.5 mi South 19.6 mph 24.2 mph N/A Snow Light Snow
4:55 AM 37.4 °F 28.2 °F 37.4 °F 100% 29.93 in 2.5 mi SSW 16.1 mph 19.6 mph N/A   Overcast
5:15 AM 37.4 °F 28.9 °F 35.6 °F 93% 29.93 in 4.0 mi South 13.8 mph - N/A   Overcast
5:35 AM 35.6 °F 28.6 °F 35.6 °F 100% 29.93 in 1.5 mi SSW 9.2 mph - N/A   Overcast
5:55 AM 35.6 °F 28.0 °F 35.6 °F 100% 29.92 in 0.5 mi SSW 10.4 mph - N/A Fog Fog
6:15 AM 35.6 °F 28.6 °F 35.6 °F 100% 29.92 in 0.2 mi SSW 9.2 mph - N/A Fog Fog
6:35 AM 33.8 °F 27.7 °F 33.8 °F 100% 29.91 in 0.2 mi South 6.9 mph - N/A Fog Fog
6:55 AM 33.8 °F 28.6 °F 33.8 °F 100% 29.91 in 0.5 mi South 5.8 mph - N/A Fog Fog
7:15 AM 32.0 °F 25.6 °F 32.0 °F 100% 29.91 in 0.5 mi South 6.9 mph - N/A Fog Fog
7:35 AM 32.0 °F 25.6 °F 32.0 °F 100% 29.91 in 0.5 mi South 6.9 mph - N/A Fog Fog
7:55 AM 32.0 °F 25.6 °F 32.0 °F 100% 29.91 in 0.2 mi South 6.9 mph - N/A Fog Fog
8:15 AM 32.0 °F 25.6 °F 32.0 °F 100% 29.91 in 0.2 mi South 6.9 mph - N/A Fog Fog
8:35 AM 32.0 °F 25.6 °F 32.0 °F 100% 29.91 in 0.2 mi South 6.9 mph - N/A Fog Fog
8:55 AM 33.8 °F 27.0 °F 33.8 °F 100% 29.90 in 0.2 mi SSE 8.1 mph - N/A Fog Fog
9:15 AM 35.6 °F 28.6 °F 35.6 °F 100% 29.91 in 0.2 mi South 9.2 mph - N/A Fog Fog
9:35 AM 35.6 °F 28.0 °F 35.6 °F 100% 29.90 in 2.5 mi South 10.4 mph - N/A   Mostly Cloudy
9:55 AM 37.4 °F 31.4 °F 37.4 °F 100% 29.90 in 10.0 mi South 8.1 mph - N/A   Scattered Clouds
10:15 AM 42.8 °F 37.0 °F 35.6 °F 76% 29.90 in 10.0 mi South 10.4 mph - N/A   Clear
10:35 AM 44.6 °F 38.8 °F 32.0 °F 61% 29.89 in 10.0 mi South 11.5 mph - N/A   Clear
10:55 AM 46.4 °F 41.1 °F 32.0 °F 57% 29.88 in 10.0 mi SSE 11.5 mph - N/A   Clear
11:15 AM 48.2 °F - 32.0 °F 54% 29.88 in 10.0 mi South 11.5 mph - N/A   Clear
11:35 AM 51.8 °F - 32.0 °F 47% 29.86 in 10.0 mi South 12.7 mph - N/A   Clear
11:55 AM 53.6 °F - 30.2 °F 41% 29.86 in 10.0 mi South 17.3 mph 21.9 mph N/A   Clear
12:15 PM 55.4 °F - 28.4 °F 36% 29.84 in 10.0 mi South 19.6 mph - N/A   Clear
12:35 PM 57.2 °F - 26.6 °F 31% 29.83 in 10.0 mi SSW 18.4 mph 25.3 mph N/A   Clear
12:55 PM 59.0 °F - 26.6 °F 29% 29.82 in 10.0 mi South 19.6 mph 25.3 mph N/A   Clear
1:15 PM 60.8 °F - 24.8 °F 25% 29.80 in 10.0 mi South 19.6 mph 27.6 mph N/A   Clear
1:35 PM 64.4 °F - 23.0 °F 21% 29.78 in 10.0 mi SSW 18.4 mph 25.3 mph N/A   Clear
1:55 PM 66.2 °F - 23.0 °F 19% 29.77 in 10.0 mi SSW 21.9 mph 26.5 mph N/A   Clear
2:15 PM 68.0 °F - 21.2 °F 17% 29.76 in 10.0 mi SSW 20.7 mph 29.9 mph N/A   Clear
2:35 PM 68.0 °F - 21.2 °F 17% 29.74 in 10.0 mi SSW 24.2 mph 31.1 mph N/A   Clear
2:55 PM 68.0 °F - 23.0 °F 18% 29.73 in 10.0 mi SSW 21.9 mph 31.1 mph N/A   Clear
3:15 PM 69.8 °F - 21.2 °F 16% 29.74 in 10.0 mi SW 26.5 mph 34.5 mph N/A   Clear
3:35 PM 69.8 °F - 21.2 °F 16% 29.73 in 10.0 mi SSW 23.0 mph 29.9 mph N/A   Clear
3:55 PM 69.8 °F - 21.2 °F 16% 29.73 in 10.0 mi SW 23.0 mph 31.1 mph N/A   Clear
4:15 PM 68.0 °F - 21.2 °F 17% 29.73 in 10.0 mi SW 23.0 mph 31.1 mph N/A   Clear
4:35 PM 68.0 °F - 21.2 °F 17% 29.73 in 10.0 mi SW 23.0 mph 27.6 mph N/A   Clear
4:55 PM 68.0 °F - 21.2 °F 17% 29.72 in 10.0 mi SW 24.2 mph 28.8 mph N/A   Clear
5:15 PM 68.0 °F - 21.2 °F 17% 29.72 in 10.0 mi SSW 19.6 mph 23.0 mph N/A   Clear
5:35 PM 64.4 °F - 21.2 °F 19% 29.72 in 10.0 mi SSW 13.8 mph 19.6 mph N/A   Clear
5:55 PM 60.8 °F - 21.2 °F 22% 29.72 in 10.0 mi South 11.5 mph - N/A   Clear
6:15 PM 57.2 °F - 21.2 °F 25% 29.72 in 10.0 mi South 10.4 mph - N/A   Clear
6:35 PM 53.6 °F - 21.2 °F 28% 29.73 in 10.0 mi South 10.4 mph - N/A   Clear
6:55 PM 51.8 °F - 21.2 °F 30% 29.73 in 10.0 mi South 11.5 mph - N/A   Clear
7:15 PM 50.0 °F - 21.2 °F 32% 29.73 in 10.0 mi South 11.5 mph - N/A   Clear
7:35 PM 50.0 °F - 21.2 °F 32% 29.73 in 10.0 mi South 12.7 mph - N/A   Clear
7:55 PM 51.8 °F - 23.0 °F 33% 29.74 in 10.0 mi South 12.7 mph - N/A   Clear
8:15 PM 50.0 °F - 23.0 °F 35% 29.74 in 10.0 mi SSW 9.2 mph - N/A   Clear
8:35 PM 51.8 °F - 23.0 °F 33% 29.74 in 10.0 mi SSW 11.5 mph - N/A   Clear
8:55 PM 50.0 °F - 23.0 °F 35% 29.75 in 10.0 mi SSW 10.4 mph - N/A   Clear
9:15 PM 48.2 °F - 23.0 °F 37% 29.76 in 10.0 mi SSW 8.1 mph - N/A   Clear
9:35 PM 46.4 °F 42.4 °F 23.0 °F 40% 29.76 in 10.0 mi WNW 8.1 mph - N/A   Clear
9:55 PM 46.4 °F 42.4 °F 23.0 °F 40% 29.77 in 10.0 mi West 8.1 mph - N/A   Clear
10:15 PM 44.6 °F 39.2 °F 21.2 °F 39% 29.77 in 10.0 mi West 10.4 mph - N/A   Clear
10:35 PM 42.8 °F 37.5 °F 21.2 °F 42% 29.76 in 10.0 mi WSW 9.2 mph - N/A   Clear
10:55 PM 46.4 °F 41.9 °F 19.4 °F 34% 29.77 in 10.0 mi NW 9.2 mph - N/A   Clear
11:15 PM 42.8 °F 37.0 °F 19.4 °F 39% 29.77 in 10.0 mi NNW 10.4 mph - N/A   Clear
11:35 PM 42.8 °F 36.6 °F 19.4 °F 39% 29.77 in 10.0 mi NNW 11.5 mph - N/A   Clear